Probability
0 0 0 0 0 0 0 0 0 0 0 0 3 3 3 6 10 19 23 26 29 35 35 48 55 58 68 71 71 74 81 87 87 84 81 77 77 77 71 71 71 68 61 61
0 0 0 0 0 0 0 0 0 0 0 0 3 3 0 3 13 23 23 23 26 42 45 45 65 61 68 74 71 74 81 77 81 81 77 81 81 77 71 77 74 68 58 65
0 0 0 0 0 0 0 0 0 0 0 0 3 3 0 6 10 13 19 23 26 42 42 55 55 55 61 68 74 68 71 74 77 77 77 81 81 81 77 81 77 74 71 61
0 0 0 0 0 0 0 0 0 0 0 0 0 0 10 3 10 10 16 23 26 42 48 48 58 58 55 58 68 65 71 74 71 74 74 77 77 77 81 81 81 68 68 61
0 0 0 0 0 0 0 0 0 0 0 0 0 0 6 13 6 13 19 19 23 35 45 45 48 55 55 55 58 61 68 68 71 68 71 77 71 77 68 77 77 68 68 58
0 0 0 0 0 0 0 0 0 0 0 0 0 0 6 3 13 19 19 19 29 26 39 45 45 45 48 55 55 61 68 68 68 68 68 68 71 74 71 68 65 71 61 61
0 0 0 0 0 0 0 0 0 0 0 0 0 3 6 3 10 13 26 19 32 32 39 42 45 42 52 52 55 61 65 68 71 68 68 68 68 71 71 68 61 58 55 48
0 0 0 0 0 0 0 0 0 0 0 0 0 3 6 6 3 16 19 32 42 39 48 45 45 42 52 52 55 58 65 65 58 58 61 65 58 52 52 65 55 48 45 39
0 0 0 0 0 0 0 0 0 0 0 0 0 3 6 10 10 13 16 26 42 42 42 48 48 52 52 48 58 58 61 68 61 58 55 52 52 52 58 65 55 39 42 35
0 0 0 0 0 0 0 0 0 0 3 0 0 3 6 13 10 16 16 26 39 45 45 45 45 55 55 52 61 65 65 61 55 55 52 45 48 45 45 52 45 45 48 48
0 0 0 0 0 0 0 0 0 0 0 0 0 3 3 10 16 19 19 26 39 39 45 42 52 52 52 52 58 58 58 58 52 48 58 55 48 45 42 35 42 48 42 42
0 0 0 0 0 0 0 0 0 0 6 3 0 3 3 6 10 19 19 26 35 42 42 45 55 52 52 48 48 52 48 42 48 45 48 52 42 45 45 42 32 39 39 35
0 3 0 0 0 0 0 0 0 0 3 0 0 3 0 3 10 16 19 32 35 45 45 42 58 58 48 39 42 52 42 39 35 32 35 39 42 45 45 35 29 32 39 35
0 0 0 0 0 0 0 0 0 0 0 0 0 0 0 3 10 13 19 29 32 42 42 55 55 58 48 48 45 45 32 29 29 29 32 32 39 42 32 26 26 26 26 26
0 0 0 0 0 0 0 0 0 0 0 0 0 0 0 10 13 13 13 26 32 42 55 55 58 55 55 42 48 45 35 29 29 29 29 32 29 29 32 29 26 26 26 13
10 0 0 0 0 0 0 0 0 0 0 0 0 3 3 6 10 10 16 26 39 35 45 52 55 52 58 45 45 42 32 29 29 29 29 29 29 23 26 23 23 16 23 19
0 10 3 0 0 0 0 0 0 0 0 0 0 3 13 13 13 26 23 26 29 39 42 48 55 55 55 45 42 42 32 29 29 29 23 19 16 16 16 16 13 16 16 19
16 16 10 0 0 0 0 0 0 0 0 0 0 6 10 13 19 26 16 23 23 32 45 52 48 48 52 45 42 39 29 29 29 29 19 16 13 10 10 13 10 13 19 16
16 26 0 0 0 0 0 0 0 0 0 6 6 10 10 13 16 10 13 19 29 35 45 48 48 48 52 48 42 32 35 26 26 23 19 13 13 10 10 10 13 10 13 10
3 23 10 3 0 0 0 0 0 0 6 6 6 10 13 16 6 13 29 29 29 39 48 45 48 45 48 45 39 32 35 29 23 16 16 16 16 13 13 16 13 13 10 10
3 10 10 10 3 0 0 0 0 0 13 16 10 16 16 23 23 19 16 23 23 39 45 45 48 45 45 42 35 39 32 32 19 19 16 16 19 16 16 19 13 13 16 10
3 6 10 10 0 0 3 0 3 23 42 23 19 19 26 23 23 16 16 32 29 39 39 45 48 48 42 45 42 42 35 29 26 23 23 23 23 13 10 19 16 13 16 16
3 3 3 13 10 23 23 32 32 29 29 26 19 19 19 19 26 23 19 32 35 35 42 45 45 42 39 42 35 39 35 32 26 26 26 26 23 26 19 19 16 16 16 6
3 6 10 19 10 16 19 19 19 23 23 19 23 19 23 23 23 26 29 32 39 42 45 45 45 42 39 35 32 35 35 32 26 26 29 26 26 23 19 19 10 6 6 6
0 3 3 16 23 13 19 16 16 19 16 19 13 16 16 19 23 29 29 32 42 42 42 45 48 42 35 32 35 32 35 32 26 26 26 26 16 16 16 10 10 3 3 0
3 3 10 23 23 23 19 13 16 13 13 10 10 13 16 16 19 26 29 39 45 45 45 45 35 32 29 29 32 29 29 26 26 26 26 16 16 16 6 6 6 0 0 0
Height
5866 5869 5871 5874 5876 5878 5880 5883 5885 5885 5886 5887 5888 5888 5887 5888 5888 5887 5887 5887 5886 5886 5885 5884 5884 5884 5883 5883 5882 5882 5881 5880 5878 5877 5876 5875 5873 5872 5871 5870 5868 5867 5866 5865
5863 5866 5869 5871 5873 5875 5877 5879 5881 5881 5882 5884 5885 5885 5885 5884 5885 5885 5885 5885 5884 5883 5883 5882 5883 5882 5882 5881 5880 5879 5878 5877 5876 5875 5874 5873 5871 5870 5869 5867 5866 5865 5864 5863
5861 5865 5866 5868 5870 5872 5875 5876 5877 5879 5880 5881 5882 5882 5882 5881 5881 5881 5882 5882 5882 5881 5880 5880 5880 5880 5879 5879 5878 5877 5876 5875 5874 5873 5872 5871 5869 5868 5867 5865 5864 5863 5862 5861
5858 5861 5863 5865 5868 5870 5872 5874 5875 5875 5876 5877 5879 5879 5877 5878 5878 5879 5879 5879 5879 5878 5878 5877 5877 5877 5877 5876 5875 5874 5874 5873 5872 5871 5869 5868 5867 5865 5864 5863 5862 5860 5859 5859
5855 5857 5859 5862 5865 5867 5869 5871 5872 5873 5874 5874 5875 5876 5877 5875 5876 5876 5876 5876 5875 5875 5875 5874 5874 5873 5873 5873 5873 5872 5871 5870 5869 5868 5867 5865 5864 5863 5862 5861 5860 5858 5857 5856
5851 5854 5856 5858 5861 5863 5865 5867 5868 5869 5871 5872 5873 5874 5875 5873 5872 5872 5872 5872 5871 5871 5871 5870 5870 5870 5869 5869 5869 5869 5868 5867 5867 5866 5864 5863 5862 5861 5860 5858 5857 5856 5855 5854
5847 5850 5852 5854 5856 5859 5861 5864 5865 5866 5867 5868 5870 5870 5871 5870 5869 5868 5868 5868 5867 5867 5867 5867 5866 5866 5866 5865 5865 5865 5865 5864 5864 5863 5861 5860 5859 5858 5857 5856 5855 5854 5853 5851
5843 5846 5849 5850 5852 5855 5857 5860 5862 5864 5866 5867 5866 5866 5867 5866 5865 5864 5865 5864 5864 5864 5863 5863 5863 5862 5862 5861 5861 5861 5861 5861 5860 5860 5858 5857 5856 5855 5854 5853 5852 5851 5849 5848
5840 5843 5844 5845 5847 5850 5853 5855 5858 5860 5861 5863 5862 5862 5861 5861 5861 5861 5861 5860 5860 5860 5859 5859 5859 5859 5858 5858 5858 5858 5857 5857 5857 5856 5855 5854 5853 5852 5851 5850 5849 5848 5846 5845
5834 5838 5839 5842 5843 5845 5848 5851 5853 5855 5856 5858 5859 5859 5858 5856 5857 5856 5854 5855 5855 5855 5855 5855 5854 5855 5855 5855 5854 5854 5853 5853 5853 5852 5852 5850 5850 5849 5848 5847 5846 5845 5843 5841
5829 5832 5835 5837 5838 5841 5844 5846 5848 5850 5852 5854 5855 5856 5852 5851 5851 5851 5851 5851 5850 5851 5851 5850 5850 5850 5850 5850 5850 5850 5849 5849 5849 5848 5848 5847 5846 5845 5844 5843 5842 5841 5839 5838
5823 5826 5829 5832 5834 5836 5838 5841 5843 5845 5846 5848 5850 5852 5847 5847 5847 5847 5847 5847 5847 5847 5847 5845 5845 5845 5846 5845 5845 5845 5845 5845 5845 5844 5844 5843 5842 5841 5840 5839 5838 5836 5835 5833
5817 5820 5823 5826 5830 5830 5832 5835 5837 5840 5841 5842 5844 5847 5842 5842 5841 5841 5841 5842 5842 5842 5842 5841 5841 5841 5841 5841 5840 5840 5841 5841 5840 5840 5840 5839 5838 5836 5835 5834 5833 5832 5830 5828
5811 5814 5818 5822 5823 5824 5826 5828 5831 5833 5835 5836 5838 5839 5837 5836 5836 5835 5835 5836 5837 5837 5837 5836 5836 5836 5836 5836 5836 5836 5836 5836 5836 5835 5835 5834 5833 5832 5831 5829 5828 5827 5825 5823
5804 5807 5810 5813 5817 5818 5819 5821 5823 5826 5828 5830 5832 5832 5832 5831 5829 5830 5829 5829 5830 5831 5830 5830 5831 5831 5831 5831 5831 5831 5831 5831 5831 5831 5830 5829 5828 5827 5826 5824 5823 5821 5820 5818
5797 5800 5803 5806 5809 5811 5813 5815 5817 5819 5821 5823 5824 5825 5824 5824 5823 5824 5824 5824 5825 5825 5824 5825 5825 5825 5825 5825 5825 5826 5826 5826 5826 5825 5824 5824 5823 5821 5820 5819 5817 5816 5815 5813
5789 5793 5796 5799 5802 5804 5806 5809 5810 5812 5813 5816 5816 5817 5816 5817 5817 5817 5818 5818 5818 5818 5818 5818 5818 5819 5819 5820 5820 5820 5820 5820 5820 5820 5819 5818 5817 5816 5814 5813 5812 5810 5809 5807
5783 5786 5788 5792 5795 5796 5802 5803 5804 5805 5806 5808 5808 5808 5808 5810 5809 5810 5810 5810 5811 5812 5812 5812 5812 5813 5814 5814 5814 5814 5814 5814 5814 5813 5812 5811 5811 5810 5808 5807 5806 5804 5803 5801
5777 5779 5782 5784 5786 5789 5793 5794 5795 5797 5798 5799 5800 5801 5801 5802 5802 5802 5803 5802 5803 5804 5805 5804 5805 5807 5808 5808 5808 5808 5808 5808 5807 5807 5806 5805 5804 5803 5802 5801 5799 5798 5797 5795
5770 5772 5775 5777 5779 5782 5786 5787 5788 5790 5790 5791 5791 5793 5794 5794 5795 5794 5795 5796 5796 5797 5798 5798 5798 5800 5801 5801 5801 5801 5802 5801 5801 5800 5799 5798 5797 5797 5796 5794 5793 5792 5790 5789
5763 5765 5767 5770 5772 5775 5778 5778 5781 5783 5783 5784 5784 5785 5786 5786 5787 5787 5788 5789 5789 5790 5790 5791 5792 5793 5794 5794 5794 5795 5795 5794 5794 5793 5792 5792 5791 5790 5789 5788 5786 5785 5784 5783
5756 5759 5761 5763 5766 5770 5769 5770 5773 5774 5775 5775 5776 5777 5777 5778 5779 5780 5781 5782 5782 5783 5783 5783 5785 5786 5786 5787 5787 5787 5787 5787 5787 5786 5785 5784 5784 5783 5782 5781 5780 5778 5777 5776
5749 5752 5754 5756 5759 5760 5760 5761 5763 5765 5767 5767 5768 5769 5769 5769 5771 5772 5773 5773 5774 5775 5775 5775 5776 5778 5779 5779 5779 5779 5779 5779 5779 5778 5778 5777 5776 5776 5775 5774 5772 5771 5770 5769
5742 5744 5746 5748 5750 5751 5751 5753 5755 5757 5758 5760 5760 5760 5761 5762 5763 5764 5764 5764 5765 5766 5766 5767 5768 5769 5770 5771 5771 5771 5771 5771 5770 5770 5770 5769 5769 5768 5767 5766 5765 5763 5762 5761
5735 5736 5738 5740 5742 5742 5743 5745 5747 5748 5750 5752 5753 5753 5753 5754 5755 5755 5756 5756 5757 5757 5757 5758 5759 5761 5762 5762 5762 5762 5763 5762 5762 5762 5762 5762 5761 5760 5759 5758 5757 5756 5755 5753
5727 5729 5731 5733 5735 5735 5737 5738 5739 5741 5742 5744 5744 5745 5745 5746 5746 5747 5747 5748 5748 5748 5749 5750 5751 5752 5753 5753 5754 5754 5754 5754 5754 5754 5754 5753 5753 5752 5751 5750 5749 5748 5747 5746
Wind_Speed
17 16 15 14 14 13 12 12 12 13 12 12 14 14 14 13 13 13 13 14 14 15 16 14 14 14 14 14 14 13 13 13 13 13 13 13 13 13 14 14 14 14 13 12
17 16 15 15 15 14 14 14 13 14 14 13 13 14 14 13 13 14 14 14 15 16 16 15 14 14 14 13 13 13 13 14 14 13 14 14 14 14 14 14 14 14 13 13
17 16 17 17 16 15 15 14 13 14 14 14 14 14 14 14 14 15 15 16 17 17 17 16 15 14 14 14 14 14 14 14 14 14 14 15 15 15 14 14 14 14 14 13
18 17 16 16 17 17 17 16 16 15 14 14 14 14 14 15 16 16 17 16 17 18 18 17 16 16 15 15 15 15 15 15 14 14 15 16 16 15 15 15 15 14 14 14
18 18 18 18 18 18 17 16 17 16 17 16 14 13 14 17 17 17 18 17 17 18 18 18 19 18 16 15 16 16 16 16 15 15 15 16 16 15 15 15 15 15 14 14
19 19 19 19 19 19 18 17 17 18 17 18 17 15 17 18 19 19 18 18 17 17 18 19 19 19 19 17 17 17 17 17 17 16 16 16 16 15 15 16 16 16 15 15
20 19 19 20 20 20 19 19 18 17 17 17 16 17 18 18 19 19 20 20 19 19 19 19 19 18 19 19 18 17 17 17 18 17 17 17 16 15 16 16 16 16 16 17
19 21 20 21 20 20 20 19 18 15 14 15 16 18 19 19 20 19 19 20 21 19 18 18 18 18 19 19 18 18 18 18 18 18 18 17 16 16 17 17 17 18 18 19
19 19 20 21 21 20 20 20 19 18 16 17 17 18 20 19 20 20 20 20 20 18 18 18 18 18 18 18 18 19 19 19 19 19 18 17 17 17 17 18 18 18 19 19
22 20 20 20 22 22 22 20 19 20 20 19 19 19 22 22 22 22 20 20 19 18 19 19 19 19 19 19 18 19 19 19 18 18 18 18 17 18 19 19 18 19 19 20
24 22 21 21 22 21 22 21 22 21 21 20 19 19 21 22 23 23 21 20 20 19 20 20 20 19 19 19 19 19 19 18 18 18 18 18 19 20 20 19 19 20 20 20
25 25 24 23 23 23 23 22 23 24 24 23 21 22 23 23 24 23 22 22 22 21 21 21 20 20 19 20 20 19 19 19 18 18 18 19 20 20 20 20 20 20 21 21
26 27 25 23 24 24 24 24 24 24 24 24 23 23 26 25 24 22 22 22 21 21 21 22 22 21 20 20 20 20 20 19 19 19 19 19 20 20 20 21 21 21 21 22
27 28 27 25 24 24 23 23 25 25 25 25 24 24 26 26 26 25 23 21 21 22 22 23 22 22 21 21 21 21 20 20 20 20 20 20 21 21 21 22 22 21 22 22
29 29 29 28 25 24 24 25 26 26 25 25 25 27 28 29 27 25 25 23 23 23 23 23 23 22 22 22 22 21 20 20 20 21 21 21 22 22 22 22 22 22 23 23
30 30 30 29 27 26 26 27 27 27 26 26 28 28 29 31 30 28 26 26 26 25 25 24 24 23 23 23 22 21 21 22 22 22 23 23 23 23 23 23 23 23 23 24
29 30 31 30 28 29 28 27 27 28 29 29 29 29 30 31 32 30 30 28 27 26 25 24 24 23 23 23 23 23 23 23 23 24 24 24 24 24 24 24 24 24 24 24
30 30 30 30 29 31 29 27 28 28 28 29 31 31 30 31 31 30 30 30 28 27 27 26 25 24 24 24 23 23 24 24 24 24 25 26 25 25 25 25 25 25 25 25
29 30 30 30 30 30 28 28 28 28 29 30 30 31 30 31 30 30 29 28 27 28 29 29 28 26 25 25 25 25 25 25 25 26 26 27 26 26 26 26 26 26 25 25
28 29 30 29 28 29 29 29 29 28 30 29 29 30 31 30 30 30 30 29 29 29 29 29 28 27 26 26 26 26 26 27 26 27 27 27 26 26 27 26 26 25 25 25
28 29 29 28 28 28 28 29 29 30 31 31 31 31 31 31 31 31 30 30 29 29 29 29 29 28 27 27 27 28 28 29 29 27 28 28 27 27 26 26 26 26 26 26
28 29 29 28 29 29 30 30 30 30 29 30 30 30 30 30 31 31 31 31 31 30 30 30 29 29 28 28 29 29 29 29 29 28 28 28 28 27 27 26 26 26 26 26
27 27 28 30 30 29 30 30 30 30 30 29 29 29 29 30 30 30 30 31 31 31 31 30 29 28 29 29 29 29 29 28 28 28 28 28 28 28 28 27 27 27 27 27
27 27 28 29 30 30 30 31 31 31 30 30 30 29 29 30 30 30 30 29 29 31 31 31 29 29 30 29 30 30 29 28 27 27 28 28 27 28 28 27 27 27 27 27
27 28 28 29 29 30 29 29 28 28 30 30 30 32 31 30 30 30 30 30 30 30 31 31 31 30 30 29 29 29 29 28 28 27 28 28 29 29 28 28 28 28 27 27
28 28 29 29 28 26 26 29 29 29 30 30 30 29 30 31 31 31 31 30 30 30 30 30 30 30 30 30 29 29 29 29 29 28 28 28 29 29 29 29 28 28 27 27
Wind_Direction
228 230 227 227 230 227 226 230 241 246 239 244 250 257 261 265 267 265 268 274 281 284 287 285 290 295 298 306 308 309 309 312 312 313 314 314 313 314 314 316 317 315 313 311
230 231 230 234 232 230 226 223 233 248 245 243 247 256 260 264 268 270 268 270 277 282 285 287 290 293 295 301 304 307 307 309 310 311 314 314 314 313 313 313 313 314 313 310
234 235 231 229 232 236 234 232 236 246 254 254 252 256 259 256 261 266 268 269 275 277 280 280 285 291 294 299 303 304 306 306 308 310 310 313 315 314 314 311 310 310 311 310
232 231 234 233 231 235 236 236 241 244 250 253 259 265 264 262 269 273 274 273 274 274 276 277 280 285 291 295 297 301 304 306 306 308 308 310 311 313 311 311 311 313 311 311
232 227 229 233 233 234 235 238 241 245 249 248 251 258 264 271 271 275 281 279 272 273 274 276 280 283 286 289 293 297 301 304 305 306 308 309 309 308 308 310 310 313 313 311
228 230 231 234 235 235 236 237 243 244 247 252 251 247 259 268 272 276 280 281 277 274 272 274 276 279 283 285 290 293 295 298 301 304 305 305 305 306 306 309 310 310 310 310
227 232 235 237 237 237 237 238 242 245 247 254 256 254 257 263 266 271 275 278 279 276 273 274 276 278 282 284 286 289 289 292 296 299 302 302 302 305 307 308 310 309 308 307
231 232 233 238 238 234 236 235 238 241 248 258 260 260 260 263 266 267 273 276 275 273 273 275 276 277 280 283 286 287 287 289 292 295 299 299 300 304 308 308 307 308 307 308
227 236 238 240 241 235 234 235 236 240 241 250 255 258 262 260 266 270 272 271 273 272 273 276 278 279 281 282 284 286 286 286 290 291 294 297 300 303 306 307 308 309 308 308
224 229 234 240 242 239 236 236 238 238 240 247 255 259 261 267 272 274 273 272 272 274 276 277 278 279 280 280 281 285 286 287 289 289 291 296 299 300 303 305 306 309 309 307
227 229 232 236 241 241 240 236 236 239 240 245 252 261 263 266 269 273 273 275 275 275 277 276 277 278 277 278 279 282 285 287 289 290 291 296 298 298 300 302 303 305 307 308
230 228 232 237 240 240 240 240 237 239 242 243 246 256 261 267 271 271 271 273 274 276 275 275 278 278 276 276 276 279 282 286 288 288 290 292 296 298 299 299 301 303 305 306
229 231 230 234 241 243 238 237 239 243 246 247 247 254 264 268 268 264 266 269 273 277 275 275 278 279 278 277 278 280 280 283 286 287 289 292 296 299 300 300 300 302 304 305
230 232 231 231 239 245 245 241 242 243 244 246 248 250 258 266 269 269 266 266 272 275 274 273 275 276 277 276 276 277 277 281 285 286 289 292 296 298 300 299 298 300 301 302
232 234 233 232 236 245 248 244 242 243 244 246 249 250 252 259 264 267 268 268 270 272 270 271 272 272 273 273 274 275 277 280 284 286 288 291 293 296 298 298 296 297 299 300
237 237 237 237 236 240 246 248 247 245 244 246 249 251 254 257 260 262 266 267 270 272 272 273 273 274 274 272 271 272 275 280 283 284 288 290 292 295 296 295 295 296 297 298
239 241 241 241 240 242 243 245 248 248 245 244 249 253 253 258 263 263 264 266 268 271 275 273 272 273 273 271 270 272 275 280 282 283 286 288 290 292 293 293 293 294 295 296
240 242 244 244 243 245 245 246 248 251 252 250 250 254 257 259 262 264 264 265 267 269 272 271 270 274 274 271 271 273 276 279 281 284 285 288 290 291 291 291 291 293 293 294
241 243 244 245 245 247 246 247 247 247 249 249 251 253 258 262 265 263 265 267 268 269 269 270 268 271 271 271 271 273 275 277 281 283 284 286 288 288 290 291 291 292 292 292
245 244 243 243 245 246 248 249 252 253 254 253 254 255 258 261 262 263 265 269 270 270 268 268 269 269 270 271 271 273 275 276 280 282 282 283 286 287 289 289 290 291 291 290
244 244 244 245 247 248 249 251 252 251 252 253 254 256 257 260 262 265 269 269 268 267 267 266 267 268 270 271 272 273 274 276 280 281 281 282 285 287 289 289 290 290 290 289
244 244 245 244 246 248 250 251 251 253 254 256 257 258 258 260 262 266 268 268 266 265 265 265 266 267 269 270 271 272 272 275 278 279 280 281 284 287 288 289 289 289 289 289
241 241 243 242 245 248 250 252 251 251 253 256 260 259 261 263 264 265 267 268 266 264 264 266 267 267 268 270 271 270 272 274 275 277 279 281 283 285 287 288 288 287 287 288
238 241 244 245 246 249 250 252 252 252 252 255 258 259 261 264 265 267 268 267 265 265 264 265 265 266 268 270 270 270 271 272 273 276 278 280 283 284 285 288 289 288 287 287
241 241 245 246 248 248 250 251 252 254 254 257 260 263 265 267 267 267 268 268 267 265 264 262 264 265 268 269 269 270 271 271 271 272 276 278 280 282 284 284 286 287 288 288
240 242 245 247 248 251 253 254 252 256 257 259 262 263 265 267 269 269 269 269 269 268 265 265 265 265 266 268 269 269 270 271 272 274 275 277 278 281 282 283 284 284 285 287